Weather History for KTOI - January, 2013

Change the Weather History Date:

Saturday, January 12, 2013

  Actual Average Record
Temperature  
Mean Temperature 69 °F 46 °F  
Max Temperature 77 °F 58 °F 77 °F (2013)
Min Temperature 60 °F 35 °F 22 °F (2011)
Degree Days  
Heating Degree Days 0 19  
Month to date heating degree days 145 228  
Since 1 July heating degree days 984 1145  
Cooling Degree Days 2    
Growing Degree Days 18 (Base 50)    
Moisture  
Dew Point 61 °F    
Average Humidity 75    
Maximum Humidity 100    
Minimum Humidity 50    
Precipitation  
Precipitation 0.00 in 0.14 in 0.41 in (2002)
Month to date precipitation 0.66 1.75  
Year to date precipitation 0.66 1.75  
Snow  
Snow 0.00 in - - ()
Month to date snowfall 0.0  
Since 1 July snowfall 0.0  
Snow Depth 0.00 in    
Sea Level Pressure  
Sea Level Pressure 30.10 in    
Wind  
Wind Speed 6 mph (South)    
Max Wind Speed 18 mph    
Max Gust Speed 24 mph    
Visibility 5 miles    
Events Fog    
T = Trace of Precipitation, MM = Missing Value Source: NWS Daily Summary

Daily Weather History Graph

Daily Weather History Graph

Search for Another Location

Airport or City:

Trip Planner

Search our weather history database for the weather conditions in past years. The results will help you decide how hot, cold, wet, or windy it might be!

Date:

Astronomy

Jan. 12, 2013 Rise Set
Actual Time 6:44 AM CST 5:00 PM CST
Civil Twilight 6:18 AM CST 5:26 PM CST
Nautical Twilight 5:48 AM CST 5:56 PM CST
Astronomical Twilight 5:18 AM CST 6:26 PM CST
Moon 7:09 AM CST (1/12) 6:21 PM CST (1/12)
Length of Visible Light 11h 08m
Length of Day
10h 15m
New Moon, 1% of the Moon is Illuminated
Jan 12
New Moon
Jan 18
First Quarter
Jan 26
Full
Feb 3
Last Quarter
Feb 10
New

Hourly Weather History & Observations

Time (CST) Temp. Dew Point Humidity Pressure Visibility Wind Dir Wind Speed Gust Speed Precip Events Conditions
12:53 AM 66.0 °F 64.0 °F 93% 30.14 in 4.0 mi South 8.1 mph - N/A   Overcast
1:53 AM 66.0 °F 64.0 °F 93% 30.13 in 5.0 mi South 4.6 mph - N/A   Overcast
2:53 AM 66.0 °F 63.0 °F 90% 30.12 in 5.0 mi South 4.6 mph - N/A   Overcast
3:50 AM 64.4 °F 62.6 °F 94% 30.11 in 3.0 mi Calm Calm - N/A   Scattered Clouds
3:53 AM 64.0 °F 63.0 °F 96% 30.10 in 3.0 mi Calm Calm - N/A   Scattered Clouds
3:58 AM 64.4 °F 62.6 °F 94% 30.11 in 2.0 mi Calm Calm - N/A   Mostly Cloudy
4:01 AM 64.4 °F 62.6 °F 94% 30.11 in 1.2 mi Calm Calm - N/A   Mostly Cloudy
4:03 AM 64.4 °F 62.6 °F 94% 30.11 in 1.0 mi Calm Calm - N/A   Mostly Cloudy
4:05 AM 64.4 °F 62.6 °F 94% 30.11 in 0.5 mi Calm Calm - N/A Fog Fog
4:53 AM 62.1 °F 61.0 °F 96% 30.09 in 0.8 mi SSE 3.5 mph - N/A   Mist
4:58 AM 62.6 °F 60.8 °F 94% 30.11 in 1.2 mi Calm Calm - N/A   Scattered Clouds
5:00 AM 62.6 °F 60.8 °F 94% 30.11 in 1.8 mi Calm Calm - N/A   Scattered Clouds
5:07 AM 62.6 °F 62.6 °F 100% 30.11 in 2.5 mi Calm Calm - N/A   Partly Cloudy
5:17 AM 62.6 °F 60.8 °F 94% 30.12 in 1.5 mi Calm Calm - N/A   Partly Cloudy
5:24 AM 62.6 °F 60.8 °F 94% 30.11 in 1.0 mi Calm Calm - N/A   Scattered Clouds
5:29 AM 62.6 °F 60.8 °F 94% 30.11 in 0.5 mi Calm Calm - N/A Fog Fog
5:35 AM 60.8 °F 60.8 °F 100% 30.12 in 0.2 mi Calm Calm - N/A Fog Fog
5:46 AM 62.6 °F 60.8 °F 94% 30.12 in 1.0 mi Calm Calm - N/A   Overcast
5:48 AM 62.6 °F 62.6 °F 100% 30.12 in 2.0 mi SSW 3.5 mph - N/A   Overcast
5:53 AM 62.1 °F 62.1 °F 100% 30.12 in 4.0 mi South 3.5 mph - N/A   Overcast
6:53 AM 63.0 °F 62.1 °F 97% 30.12 in 4.0 mi South 3.5 mph - N/A   Overcast
7:06 AM 62.6 °F 62.6 °F 100% 30.14 in 2.5 mi SSE 4.6 mph - N/A   Overcast
7:09 AM 62.6 °F 62.6 °F 100% 30.14 in 3.0 mi Calm Calm - N/A   Overcast
7:53 AM 64.0 °F 62.1 °F 93% 30.15 in 3.0 mi SSE 3.5 mph - N/A   Overcast
8:53 AM 64.9 °F 61.0 °F 87% 30.16 in 6.0 mi South 5.8 mph - N/A   Overcast
9:05 AM 66.2 °F 60.8 °F 83% 30.17 in 6.0 mi South 6.9 mph - N/A   Haze
9:18 AM 66.2 °F 60.8 °F 83% 30.17 in 6.0 mi South 5.8 mph - N/A   Haze
9:53 AM 68.0 °F 61.0 °F 78% 30.16 in 7.0 mi SSE 6.9 mph - N/A   Mostly Cloudy
10:11 AM 71.6 °F 60.8 °F 69% 30.16 in 8.0 mi South 5.8 mph - N/A   Scattered Clouds
10:53 AM 72.0 °F 60.1 °F 66% 30.14 in 9.0 mi South 9.2 mph - N/A   Partly Cloudy
11:53 AM 75.0 °F 59.0 °F 57% 30.10 in 10.0 mi South 12.7 mph 20.7 mph N/A   Partly Cloudy
12:53 PM 75.0 °F 57.0 °F 53% 30.08 in 10.0 mi South 13.8 mph 21.9 mph N/A   Partly Cloudy
1:53 PM 75.0 °F 57.9 °F 55% 30.07 in 10.0 mi South 12.7 mph 19.6 mph N/A   Mostly Cloudy
2:53 PM 75.0 °F 59.0 °F 57% 30.06 in 10.0 mi South 5.8 mph - N/A   Scattered Clouds
3:53 PM 75.0 °F 55.9 °F 51% 30.06 in 10.0 mi South 11.5 mph 18.4 mph N/A   Partly Cloudy
4:53 PM 73.0 °F 55.9 °F 55% 30.05 in 10.0 mi SSE 6.9 mph - N/A   Mostly Cloudy
5:53 PM 69.1 °F 55.9 °F 63% 30.05 in 10.0 mi South 3.5 mph - N/A   Clear
6:53 PM 64.9 °F 55.9 °F 73% 30.05 in 10.0 mi Calm Calm - N/A   Partly Cloudy
7:53 PM 64.9 °F 57.0 °F 75% 30.05 in 9.0 mi SSE 3.5 mph - N/A   Clear
8:53 PM 64.0 °F 57.9 °F 80% 30.06 in 9.0 mi South 4.6 mph - N/A   Scattered Clouds
9:53 PM 64.0 °F 61.0 °F 90% 30.04 in 8.0 mi SSE 4.6 mph - N/A   Mostly Cloudy
10:46 PM 64.4 °F 60.8 °F 88% 30.06 in 7.0 mi South 5.8 mph - N/A   Scattered Clouds
10:53 PM 64.0 °F 61.0 °F 90% 30.04 in 7.0 mi SSE 4.6 mph - N/A   Partly Cloudy
11:35 PM 64.4 °F 60.8 °F 88% 30.06 in 6.0 mi Calm Calm - N/A   Mostly Cloudy
11:53 PM 64.0 °F 61.0 °F 90% 30.04 in 6.0 mi South 3.5 mph - N/A   Overcast